STARLINK-34060, 63815

Orbit data source: Space-Track

STARLINK-34060, 63815 is a payload satellite owned by SpaceX/Seattle (US) in LEO that was launched on Sun, 04 May 2025 UTC via an FALCON 9 launch vehicle from the Air Force Eastern Test Range (AFETR). Payload-class satellites include a variety of spacecraft equipped with specific instruments for various scientific and technological missions. These include communications satellites like Starlink; space stations such as the ISS; scientific satellites like the Hubble; Earth observation satellites from companies like Planet Labs, Umbra, and HawkEye 360; GPS; miniature CubeSats for education and research; and military/defense satellites.

Loading next visibility...
Identifier
63815, 2025-092M
Orbit
LEO
Country
Flag of USUS
Related business
Manufacturer
SpaceX/Seattle
Mission
Operational Commercial Communications
Bus & Motor
STARLINK V2MO, Unknown motor
Mass
575 kg wet, ~530 kg dry
Launch date (UTC)
2025-05-04 (1 year ago)
Launch vehicle
FALCON 9
Launch site
Air Force Eastern Test Range (AFETR)
Object type
Payload
Rocket body
Debris
Shape & HBR
Box + 2 Pan, 17.7 m
Radar Cross Section
36.964 m², Large (>1 m²)

Expand to show TLE details & history
Last TLE update: 9 hours ago

TLE from 9 hours ago
0 STARLINK-34060
1 63815U 25092M   26120.05614323  .00029611  00000-0  10805-2 0  9991
2 63815  43.0031 242.1839 0002046 264.8607  95.2011 15.27600639 56413
Epoch: 2026-04-30T01:20Z
TLE epoch observation values (Epoch: 2026-04-30T01:20:50.775Z)
Latitude
-0.00001°
Longitude
3.96409°
Altitude
482.891 km
Speed
7.626 km/s
True Right ascension
16h 08m 44s
True Declination
0° 00' 00"
Sunlit
Object was in full shadow at epoch
Visualization orbit readout
Latitude
Unknown
Longitude
Unknown
Altitude
Unknown
Speed
Unknown
Apparent Right ascension
Unknown
Apparent Declination
Unknown
Sunlit
N/A
Visualization observer readout
Local Sidereal Time
17:47:00
Azimuth
Unknown
Elevation
Unknown
Doppler factor
Unknown
Orbital elements
Apogee altitude
486.336 km
Perigee altitude
483.528 km
Semi-major axis
6,863.069 km
Eccentricity
0.0002
Inclination
43.0031°
RAAN
242.1839°
Arg. of periapsis
264.8607°
True anomaly
95.22445°
Mean anomaly
95.2011°
Eccentric anomaly
95.21277°
Mean motion
3.81738 °/min
Orbital period
94.31 mins
BSTAR
0.0010805
Loading maneuver chart data...
Computing Atmospheric mass density...
Loading historical data...
Loading historical data...
Loading historical data...
Loading historical data...
Loading historical data...
Loading historical data...
Loading historical data...

Documentation

Showing up to 5 results
|